軌道要素
Epoch 2024 Mar. 31.0 TT = JDT 2460400.5
T 2024 Feb. 17.46665 TT Rudenko
q 3.4449045 (2000.0) P Q
z +0.0000081 Peri. 324.30797 -0.89480078 +0.31005531
+/-0.0000039 Node 236.91856 -0.26553082 -0.94801613
e 0.9999720 Incl. 22.54401 -0.35892193 -0.07163181
>From 409 observations 2022 Oct. 3-2024 Mar. 18, mean residual 0".5.
|